Afton Municipal Airport, WY

7:10 PM MST on November 11, 2019 (GMT -0700)
Afton Municipal

Weather History for KAFO - September, 2019

Change the Weather History Date:

Monday, September 2, 2019

  Actual Average Record
Temperature  
Mean Temperature 62 °F -  
Max Temperature 86 °F 77 °F 86 °F (2017)
Min Temperature 37 °F 38 °F 30 °F (2018)
Degree Days  
Heating Degree Days 4    
Growing Degree Days 12 (Base 50)    
Moisture  
Dew Point 32 °F    
Average Humidity 38    
Maximum Humidity 81    
Minimum Humidity 13    
Precipitation  
Precipitation 0.00 in - - ()
Sea Level Pressure  
Sea Level Pressure 30.24 in    
Wind  
Wind Speed 2 mph ()    
Max Wind Speed 15 mph    
Max Gust Speed 24 mph    
Visibility 10.0 miles    
Events      
Averages and records for this station are not official NWS values.
T = Trace of Precipitation, MM = Missing Value Source: Averaged Metar Reports

Daily Weather History Graph

Daily Weather History Graph

Search for Another Location

Airport or City:

Astronomy

Sep. 02, 2019 Rise Set
Actual Time 6:49 AM MDT 7:56 PM MDT
Civil Twilight 6:20 AM MDT 8:25 PM MDT
Nautical Twilight 5:45 AM MDT 9:00 PM MDT
Astronomical Twilight 5:09 AM MDT 9:36 PM MDT
Moon 10:40 AM MDT (9/2) 10:14 PM MDT (9/2)
Length of Visible Light 14h 05m
Length of Day
13h 07m
Waxing Crescent, 16% of the Moon is Illuminated
Sep 2
Waxing Crescent
Sep 5
First Quarter
Sep 13
Full
Sep 21
Last Quarter
Sep 28
New

Hourly Weather History & Observations

Time (MDT) Temp. Dew Point Humidity Pressure Visibility Wind Dir Wind Speed Gust Speed Precip Events Conditions
12:15 AM 46.4 °F 33.8 °F 62% 30.21 in 10.0 mi Calm Calm - N/A   Clear
12:35 AM 53.6 °F 32.0 °F 44% 30.22 in 10.0 mi Calm Calm - N/A   Clear
12:55 AM 50.0 °F 32.0 °F 50% 30.21 in 10.0 mi Calm Calm - N/A   Clear
1:15 AM 46.4 °F 32.0 °F 57% 30.22 in 10.0 mi Calm Calm - N/A   Clear
1:35 AM 50.0 °F 30.2 °F 47% 30.22 in 10.0 mi Calm Calm - N/A   Clear
1:55 AM 44.6 °F 32.0 °F 61% 30.22 in 10.0 mi Calm Calm - N/A   Clear
2:15 AM 46.4 °F 32.0 °F 57% 30.22 in 10.0 mi Calm Calm - N/A   Clear
2:35 AM 42.8 °F 32.0 °F 66% 30.23 in 10.0 mi Calm Calm - N/A   Clear
2:55 AM 44.6 °F 32.0 °F 61% 30.23 in 10.0 mi Calm Calm - N/A   Clear
3:15 AM 46.4 °F 32.0 °F 57% 30.22 in 10.0 mi Calm Calm - N/A   Clear
3:35 AM 41.0 °F 32.0 °F 70% 30.22 in 10.0 mi Calm Calm - N/A   Clear
3:55 AM 41.0 °F 32.0 °F 70% 30.22 in 10.0 mi Calm Calm - N/A   Clear
4:15 AM 41.0 °F 32.0 °F 70% 30.23 in 10.0 mi Calm Calm - N/A   Clear
4:35 AM 42.8 °F 32.0 °F 66% 30.22 in 10.0 mi Calm Calm - N/A   Clear
4:55 AM 42.8 °F 32.0 °F 66% 30.23 in 10.0 mi Calm Calm - N/A   Clear
5:15 AM 37.4 °F 32.0 °F 81% 30.23 in 10.0 mi Calm Calm - N/A   Clear
5:35 AM 42.8 °F 32.0 °F 66% 30.23 in 10.0 mi Calm Calm - N/A   Clear
5:55 AM 42.8 °F 30.2 °F 61% 30.25 in 10.0 mi Calm Calm - N/A   Clear
6:15 AM 42.8 °F 30.2 °F 61% 30.25 in 10.0 mi Calm Calm - N/A   Clear
6:55 AM 42.8 °F 28.4 °F 57% 30.26 in 10.0 mi Calm Calm - N/A   Clear
7:15 AM 42.8 °F 28.4 °F 57% 30.26 in 10.0 mi Calm Calm - N/A   Clear
7:35 AM 41.0 °F 30.2 °F 65% 30.27 in 10.0 mi Calm Calm - N/A   Clear
7:55 AM 42.8 °F 30.2 °F 61% 30.27 in 10.0 mi Calm Calm - N/A   Clear
8:15 AM 50.0 °F 30.2 °F 47% 30.28 in 10.0 mi Calm Calm - N/A   Clear
8:35 AM 51.8 °F 32.0 °F 47% 30.27 in 10.0 mi Calm Calm - N/A   Clear
8:55 AM 53.6 °F 32.0 °F 44% 30.27 in 10.0 mi Calm Calm - N/A   Clear
9:15 AM 55.4 °F 32.0 °F 41% 30.27 in 10.0 mi North 3.5 mph - N/A   Clear
9:35 AM 59.0 °F 32.0 °F 36% 30.27 in 10.0 mi North 4.6 mph - N/A   Clear
9:55 AM 60.8 °F 33.8 °F 36% 30.27 in 10.0 mi Calm Calm - N/A   Clear
10:15 AM 62.6 °F 32.0 °F 32% 30.27 in 10.0 mi Calm Calm - N/A   Clear
10:35 AM 64.4 °F 33.8 °F 32% 30.27 in 10.0 mi North 3.5 mph - N/A   Clear
10:55 AM 68.0 °F 33.8 °F 28% 30.26 in 10.0 mi Calm Calm - N/A   Clear
11:15 AM 71.6 °F 32.0 °F 23% 30.27 in 10.0 mi Calm Calm - N/A   Clear
11:35 AM 73.4 °F 32.0 °F 22% 30.26 in 10.0 mi Calm Calm - N/A   Clear
11:55 AM 77.0 °F 33.8 °F 21% 30.26 in 10.0 mi Calm Calm - N/A   Clear
12:15 PM 80.6 °F 33.8 °F 18% 30.25 in 10.0 mi Calm Calm - N/A   Clear
12:35 PM 82.4 °F 30.2 °F 15% 30.25 in 10.0 mi Calm Calm - N/A   Clear
12:55 PM 82.4 °F 30.2 °F 15% 30.25 in 10.0 mi Calm Calm - N/A   Clear
1:15 PM 82.4 °F 28.4 °F 14% 30.24 in 10.0 mi Calm Calm - N/A   Clear
1:35 PM 86.0 °F 32.0 °F 14% 30.24 in 10.0 mi West 3.5 mph - N/A   Clear
1:55 PM 86.0 °F 32.0 °F 14% 30.24 in 10.0 mi WNW 12.7 mph - N/A   Clear
2:15 PM 86.0 °F 30.2 °F 13% 30.24 in 10.0 mi NNW 11.5 mph 17.3 mph N/A   Clear
2:35 PM 86.0 °F 30.2 °F 13% 30.23 in 10.0 mi NW 10.4 mph 16.1 mph N/A   Clear
2:55 PM 86.0 °F 30.2 °F 13% 30.23 in 10.0 mi WNW 15.0 mph 19.6 mph N/A   Clear
3:15 PM 86.0 °F 32.0 °F 14% 30.23 in 10.0 mi WNW 11.5 mph 24.2 mph N/A   Clear
3:55 PM 84.2 °F 32.0 °F 15% 30.22 in 10.0 mi NW 9.2 mph - N/A   Clear
4:15 PM 84.2 °F 32.0 °F 15% 30.22 in 10.0 mi West 12.7 mph - N/A   Clear
4:35 PM 84.2 °F 32.0 °F 15% 30.22 in 10.0 mi WNW 4.6 mph - N/A   Clear
4:55 PM 82.4 °F 32.0 °F 16% 30.22 in 10.0 mi WNW 9.2 mph - N/A   Clear
5:15 PM 82.4 °F 33.8 °F 17% 30.21 in 10.0 mi NW 10.4 mph - N/A   Clear
5:30 PM 82.4 °F 30.2 °F 15% 30.21 in 10.0 mi NW 6.9 mph - N/A   Clear
5:55 PM 77.0 °F 32.0 °F 19% 30.21 in 10.0 mi NNW 8.1 mph - N/A   Clear
6:15 PM 78.8 °F 33.8 °F 20% 30.21 in 10.0 mi NNW 5.8 mph - N/A   Clear
6:35 PM 80.6 °F 32.0 °F 17% 30.21 in 10.0 mi WNW 9.2 mph 17.3 mph N/A   Clear
6:55 PM 77.0 °F 32.0 °F 19% 30.21 in 10.0 mi NW 8.1 mph - N/A   Clear
7:15 PM 71.6 °F 35.6 °F 27% 30.22 in 10.0 mi NW 6.9 mph - N/A   Clear
7:35 PM 68.0 °F 33.8 °F 28% 30.22 in 10.0 mi NNW 5.8 mph - N/A   Clear
7:55 PM 69.8 °F 26.6 °F 20% 30.23 in 10.0 mi NNE 4.6 mph - N/A   Clear
8:15 PM 71.6 °F 26.6 °F 19% 30.23 in 10.0 mi NNE 4.6 mph - N/A   Clear
8:35 PM 69.8 °F 24.8 °F 18% 30.24 in 10.0 mi Calm Calm - N/A   Clear
8:55 PM 66.2 °F 26.6 °F 23% 30.25 in 10.0 mi ESE 4.6 mph - N/A   Clear
9:15 PM 53.6 °F 33.8 °F 47% 30.25 in 10.0 mi South 6.9 mph - N/A   Clear
9:35 PM 55.4 °F 32.0 °F 41% 30.26 in 10.0 mi Calm Calm - N/A   Clear
9:55 PM 57.2 °F 32.0 °F 38% 30.26 in 10.0 mi South 10.4 mph - N/A   Clear
10:15 PM 55.4 °F 32.0 °F 41% 30.27 in 10.0 mi South 3.5 mph - N/A   Clear
10:35 PM 53.6 °F 32.0 °F 44% 30.27 in 10.0 mi South 3.5 mph - N/A   Clear
10:55 PM 53.6 °F 32.0 °F 44% 30.27 in 10.0 mi SSW 4.6 mph - N/A   Clear
11:15 PM 50.0 °F 32.0 °F 50% 30.28 in 10.0 mi SSW 3.5 mph - N/A   Clear
11:35 PM 46.4 °F 32.0 °F 57% 30.28 in 10.0 mi Calm Calm - N/A   Clear
11:55 PM 50.0 °F 32.0 °F 50% 30.28 in 10.0 mi Calm Calm - N/A   Clear